DIRECTV 15 (40663 NORAD) Tracking and Keplerian Element Data

This shows tracking and keplerian element data for the satellite.

Feedback or suggestion? Click here.




ElementValue
Catalog40663
NameDIRECTV 15
Epoch Orbit3306
Epoch Day159.87202132
Epoch Year2024
RAAN63.3279
Inclination0.0237
Eccentricity6.61E-05
Argument of Perigee146.8152
Mean Anonmoly257.6578
Mean Motion1.00270062
Decay Rate-1.02E-06
L11 40663U 15026A 24159.87202132 -.00000102 00000+0 00000+0 0 9991
L22 40663 0.0237 63.3279 0000661 146.8152 257.6578 1.00270062 33063



Live tracking and technical data element details for DIRECTV 15 (NORAD 40663). DIRECTV 15 can be tracked NOW for your location showing map with azimuth and elevation plus other details from your city location.







IsCatalogInMostPopularTable: catalog: 40663, numindb: 884
Update: records affected: 1



GetName: 40663 DIRECTV 15

Hit Count: updated at: Tue, 17 Sep 2024 11:28:42 GMT